This is the latest recevied weather packets stored in our database for station/object DB0MW-13. If no packets are shown the sender has not sent any weather packets the latest 10 day(s).
| Time | Temp. | Humidity | Pressure | Rain* | Wind** | Luminosity | Snow |
|---|---|---|---|---|---|---|---|
| 1778049901 | 14.44° C | 85% | 1006.6 hPa | 0 mm | - | - | - |
| 1778049601 | 14.44° C | 85% | 1006.7 hPa | 0 mm | - | - | - |
| 1778049301 | 13.89° C | 87% | 1006.7 hPa | 0 mm | - | - | - |
| 1778049001 | 13.89° C | 88% | 1006.7 hPa | 0 mm | - | - | - |
| 1778048701 | 13.33° C | 89% | 1006.7 hPa | 0 mm | - | - | - |
| 1778048401 | 13.33° C | 90% | 1006.3 hPa | 0 mm | - | - | - |
| 1778048101 | 13.33° C | 91% | 1006.7 hPa | 0 mm | - | - | - |
| 1778047801 | 13.33° C | 92% | 1006.7 hPa | 0 mm | - | - | - |
| 1778047501 | 13.33° C | 92% | 1006.7 hPa | 0 mm | - | - | - |
| 1778047201 | 12.78° C | 93% | 1006.6 hPa | 0 mm | - | - | - |
| 1778046901 | 12.78° C | 94% | 1006.5 hPa | 0 mm | - | - | - |
| 1778046601 | 12.78° C | 95% | 1006.6 hPa | 0 mm | - | - | - |
| 1778046300 | 12.78° C | 95% | 1006.4 hPa | 0 mm | - | - | - |
| 1778046000 | 12.78° C | 95% | 1006.5 hPa | 0 mm | - | - | - |
| 1778045700 | 12.78° C | 96% | 1006.4 hPa | 0 mm | - | - | - |
| 1778045400 | 12.78° C | 97% | 1006.6 hPa | 0 mm | - | - | - |
| 1778045100 | 12.22° C | 97% | 1006.3 hPa | 0 mm | - | - | - |
| 1778044800 | 12.22° C | 97% | 1006.6 hPa | 0 mm | - | - | - |
| 1778044500 | 12.22° C | 97% | 1006.3 hPa | 0 mm | - | - | - |
| 1778044201 | 12.22° C | 97% | 1006.6 hPa | 0 mm | - | - | - |
| 1778043900 | 12.22° C | 97% | 1006.5 hPa | 0 mm | - | - | - |
| 1778043600 | 12.22° C | 97% | 1006.5 hPa | 0 mm | - | - | - |
| 1778043301 | 12.78° C | 97% | 1006.6 hPa | 0 mm | - | - | - |
| 1778043001 | 12.78° C | 97% | 1006.4 hPa | 0 mm | - | - | - |
| 1778042701 | 12.78° C | 97% | 1006.6 hPa | 0 mm | - | - | - |
* Rain latest hour (hover to see other rain measurements)
** Current wind speed in m/s (hover to see current wind gust speed)